EW0139 Weather Reports


Display with metric or nautical units.
time (UTC)temp
F
wind
direction
speed
MPH
gust
MPH
rain 1hr
in
rain 24hr
in
rain mn
in
humidity
%
barometer
mb
20260901183755 81 107 11.0 19.0 0.00 0.00 0.00 29 1013.2
20260901182255 80 117 15.0 21.0 0.00 0.00 0.00 31 1013.2
20260901180740 80 102 15.0 18.0 0.00 0.00 0.00 32 1013.5
20260901175240 79 79 15.0 17.0 0.00 0.00 0.00 33 1013.4
20260901173803 78 115 9.0 17.0 0.00 0.00 0.00 33 1013.5
20260901172246 77 111 11.0 17.0 0.00 0.00 0.00 34 1013.8
20260901170749 77 107 12.0 16.0 0.00 0.00 0.00 35 1013.1
20260901165251 75 92 10.0 17.0 0.00 0.00 0.00 36 1013.3
20260901163756 74 109 8.0 14.0 0.00 0.00 0.00 37 1013.5
20260901162256 72 81 10.0 12.0 0.00 0.00 0.00 39 1013.5
20260901160802 71 121 10.0 13.0 0.00 0.00 0.00 40 1013.5
20260901155242 68 84 8.0 11.0 0.00 0.00 0.00 43 1013.7
20260901153743 65 136 3.0 11.0 0.00 0.00 0.00 48 1013.7
20260901152248 67 115 7.0 9.0 0.00 0.00 0.00 44 1013.7
20260901150809 65 79 4.0 6.0 0.00 0.00 0.00 47 1013.6
20260901145249 63 36 0.0 5.0 0.00 0.00 0.00 49 1013.6
20260901143755 62 36 3.0 6.0 0.00 0.00 0.00 52 1013.6
20260901142240 59 14 1.0 5.0 0.00 0.00 0.00 56 1013.8
20260901140808 57 10 0.0 6.0 0.00 0.00 0.00 57 1014.0
20260901135247 55 331 0.0 5.0 0.00 0.00 0.00 61 1014.0
20260901133748 52 275 3.0 3.0 0.00 0.00 0.00 65 1014.2
20260901132313 48 263 1.0 2.0 0.00 0.00 0.00 72 1014.3
20260901130752 45 259 0.0 1.0 0.00 0.00 0.00 75 1014.2
20260901125254 44 258 0.0 0.0 0.00 0.00 0.00 73 1014.4
20260901123739 45 258 0.0 0.0 0.00 0.00 0.00 73 1014.3
20260901122244 45 258 0.0 3.0 0.00 0.00 0.00 72 1014.0
20260901120753 45 240 0.0 1.0 0.00 0.00 0.00 73 1013.9
20260901115314 45 239 0.0 0.0 0.00 0.00 0.00 72 1014.0
20260901113756 46 240 0.0 0.0 0.00 0.00 0.00 72 1014.1
20260901112241 46 240 0.0 4.0 0.00 0.00 0.00 70 1013.9
20260901110802 48 285 0.0 0.0 0.00 0.00 0.00 67 1013.7
20260901105242 48 285 0.0 0.0 0.00 0.00 0.00 67 1013.6
20260901103750 47 285 0.0 2.0 0.00 0.00 0.00 68 1014.5
20260901102251 48 285 0.0 0.0 0.00 0.00 0.00 68 1014.5
20260901100756 48 285 0.0 0.0 0.00 0.00 0.00 67 1014.6
20260901095256 48 285 0.0 1.0 0.00 0.00 0.00 67 1014.6
20260901093757 48 285 0.0 1.0 0.00 0.00 0.00 66 1014.7
20260901092301 48 285 0.0 1.0 0.00 0.00 0.00 65 1014.6
20260901090744 47 285 0.0 1.0 0.00 0.00 0.00 67 1014.5
20260901085249 48 285 0.0 2.0 0.00 0.00 0.00 64 1014.6
20260901083812 49 285 0.0 3.0 0.00 0.00 0.00 64 1014.7
20260901082250 48 285 0.0 3.0 0.00 0.00 0.00 65 1014.7
20260901080813 47 285 0.0 0.0 0.00 0.00 0.00 66 1015.0
20260901075257 46 285 0.0 0.0 0.00 0.00 0.00 67 1014.9
20260901073757 47 285 0.0 0.0 0.00 0.00 0.00 68 1014.7
20260901072244 47 285 1.0 1.0 0.00 0.00 0.00 67 1014.8
20260901070744 48 285 0.0 2.0 0.00 0.00 0.00 66 1014.5
20260901065244 48 285 0.0 0.0 0.00 0.00 0.00 66 1014.8
20260901063751 49 285 0.0 0.0 0.00 0.00 0.00 62 1014.5
20260901062253 49 285 0.0 0.0 0.00 0.00 0.00 62 1014.4
20260901060752 50 285 0.0 0.0 0.00 0.00 0.00 61 1014.0
20260901055256 50 285 0.0 1.0 0.00 0.00 0.00 60 1014.0
20260901053757 51 285 0.0 2.0 0.00 0.00 0.00 59 1013.8
20260901052243 52 285 0.0 0.0 0.00 0.00 0.00 58 1014.0
20260901050744 53 285 0.0 0.0 0.00 0.00 0.00 57 1013.7
20260901045245 54 285 0.0 0.0 0.00 0.00 0.00 55 1013.8
20260901043814 56 285 0.0 0.0 0.00 0.00 0.00 52 1013.8
20260901042253 56 285 0.0 0.0 0.00 0.00 0.00 51 1013.8
20260901040755 56 285 0.0 2.0 0.00 0.00 0.00 52 1013.8
20260901035300 57 285 0.0 3.0 0.00 0.00 0.00 50 1013.7
20260901033742 59 285 0.0 1.0 0.00 0.00 0.00 48 1013.6
20260901032246 60 285 0.0 1.0 0.00 0.00 0.00 47 1013.3
20260901030810 60 285 0.0 1.0 0.00 0.00 0.00 47 1013.3
20260901025313 62 285 0.0 1.0 0.00 0.00 0.00 45 1013.3
20260901023754 64 285 0.0 2.0 0.00 0.00 0.00 43 1013.0
20260901022300 65 285 1.0 2.0 0.00 0.00 0.00 42 1013.0
20260901020741 69 285 3.0 5.0 0.00 0.00 0.00 38 1013.0
20260901015250 71 288 4.0 6.0 0.00 0.00 0.00 36 1012.7
20260901013752 73 281 6.0 13.0 0.00 0.00 0.00 35 1012.6
20260901012314 74 281 10.0 11.0 0.00 0.00 0.00 34 1012.4
20260901010800 76 280 13.0 15.0 0.00 0.00 0.00 33 1012.2
20260901005302 76 283 14.0 21.0 0.00 0.00 0.00 32 1012.2
20260901003741 77 285 15.0 17.0 0.00 0.00 0.00 32 1012.1
20260901002249 77 279 16.0 22.0 0.00 0.00 0.00 32 1012.1
20260901000750 78 290 14.0 24.0 0.00 0.00 0.00 31 1011.9
20260831235255 78 257 24.0 24.0 0.00 0.00 0.00 32 1012.0
20260831233756 78 288 14.0 28.0 0.00 0.00 0.00 32 1011.9
20260831232257 78 274 19.0 24.0 0.00 0.00 0.00 32 1012.0
20260831230745 78 263 23.0 23.0 0.00 0.00 0.00 32 1011.9
20260831225246 78 272 18.0 28.0 0.00 0.00 0.00 31 1012.0
20260831223807 78 273 20.0 25.0 0.00 0.00 0.00 31 1012.1
20260831222250 79 277 19.0 27.0 0.00 0.00 0.00 31 1012.1
20260831220752 78 291 22.0 29.0 0.00 0.00 0.00 31 1011.9
20260831215314 78 242 17.0 28.0 0.00 0.00 0.00 32 1011.7
20260831213740 78 298 19.0 32.0 0.00 0.00 0.00 31 1011.9
20260831212243 78 281 24.0 31.0 0.00 0.00 0.00 32 1011.9
20260831210752 78 298 27.0 30.0 0.00 0.00 0.00 31 1011.8
20260831205252 78 273 14.0 24.0 0.00 0.00 0.00 32 1012.0
20260831203752 77 264 14.0 30.0 0.00 0.00 0.00 34 1012.1
20260831202257 76 271 28.0 29.0 0.00 0.00 0.00 35 1011.9
20260831200818 77 268 19.0 30.0 0.00 0.00 0.00 35 1011.1
20260831195319 76 274 18.0 32.0 0.00 0.00 0.00 36 1011.1
20260831193741 76 283 30.0 30.0 0.00 0.00 0.00 35 1011.0
20260831192242 76 267 30.0 31.0 0.00 0.00 0.00 36 1011.1
20260831190749 75 270 18.0 32.0 0.00 0.00 0.00 36 1011.1
20260831185254 76 287 21.0 30.0 0.00 0.00 0.00 36 1011.1